[[{"header":{"parameterUnit":"m.s-1","parameterCategory":2,"la1":30.2991,"la2":30.254,"lo1":-89.0895,"lo2":-89.0444,"dy":0.0017,"dx":0.0017,"nx":28,"ny":28,"refTime":"2024-07-08T09:00:00:Z","depth":"0","parameterNumber":2,"parameterNumberName":"U-component_of_CURRENTS"},"data":[0,0,0,0,0,0,0,0,0,0,0,0,0,0,0,0,0,0,0,0,0,0,0,0,0,0,0,0,0,0,0,0,0,0,0,0,0,0,0,0,0,0,0,0,0,0,0,0,0,0,0,0,0,0,0,0,0,0,0.2825,0.2825,0,0.2814,0.2814,0.2814,0.2828,0.2829,0.2829,0.283,0.2864,0.2864,0.2864,0,0,0,0,0,0,0,0,0,0,0,0,0,0.2825,0.2825,0.2825,0.2825,0.2825,0.2814,0.2814,0.2814,0.2828,0.2829,0.283,0.283,0.2864,0.2864,0.2864,0,0,0,0,0,0,0,0,0,0,0,0,0,0.2819,0.2825,0.2825,0.2832,0.2833,0.2814,0.2814,0.2814,0.2828,0.2829,0.283,0.2831,0.2864,0.2864,0.2864,0.2845,0,0,0.2865,0.2866,0,0,0,0,0,0,0,0,0.2819,0.2819,0.2831,0.2832,0.2832,0.2825,0.2827,0.2827,0.2827,0.2827,0.283,0.2831,0.2856,0.2857,0.2849,0.2847,0.2848,0.2865,0.2866,0.2866,0.2866,0,0,0,0,0,0,0,0.282,0.2819,0.2818,0.2831,0.2832,0.2825,0.2826,0.2826,0.2835,0.2827,0.2829,0.2831,0.2856,0.2848,0.285,0.2849,0.2865,0.2866,0.2866,0.2866,0.2967,0.2969,0,0,0,0,0,0,0.2826,0.2819,0.2819,0.2818,0.2831,0.2825,0.2825,0.2825,0.2834,0.2837,0.283,0.2832,0.2847,0.2849,0.2851,0.2945,0.2866,0.2866,0.2866,0.2964,0.2967,0.297,0,0,0,0,0,0,0.2826,0.2826,0.2819,0.2821,0.282,0.2824,0.2823,0.2824,0.2822,0.2836,0.2839,0.2829,0.2848,0.2851,0.2879,0.2942,0.2866,0.2867,0.2962,0.2965,0.2969,0.3059,0,0,0,0,0,0,0.2826,0.2825,0.2824,0.2821,0.282,0.283,0.2823,0.2823,0.2822,0.2824,0.2835,0.2839,0.2849,0.2879,0.288,0.2942,0.2867,0.2958,0.2963,0.2968,0.3053,0.3066,0.3076,0,0,0,0,0,0.2826,0.2839,0.2824,0.2824,0.2819,0.2831,0.2831,0.2835,0.2821,0.2833,0.2845,0.2839,0.291,0.288,0.2881,0.2944,0.2956,0.2962,0.2967,0.3048,0.3063,0.3076,0,0,0,0,0,0,0.284,0.2842,0.2825,0.2837,0.2837,0.2835,0.2846,0.2832,0.2844,0.2851,0.285,0.2856,0.2911,0.2907,0.2873,0.299,0.294,0.2946,0.3002,0.3016,0.3027,0.305,0.2867,0,0,0,0,0,0.2839,0.285,0.2843,0.2851,0.2853,0.2839,0.2841,0.2844,0.2853,0.2858,0.2861,0.2886,0.2931,0.2954,0.2978,0.3021,0.3056,0.307,0.3082,0.3092,0.3113,0.3236,0.3261,0.2988,0.2988,0.2988,0,0,0.2851,0.2848,0.2856,0.2855,0.2852,0.2889,0.2844,0.286,0.2897,0.2861,0.2905,0.2913,0.2949,0.3017,0.3044,0.3024,0.3184,0.3099,0.3107,0.3123,0.3244,0.3271,0.3295,0.2992,0.2991,0.2991,0,0,0.2899,0.2872,0.2907,0.2918,0.2923,0.2918,0.2923,0.2919,0.2925,0.2952,0.2964,0.3009,0.3034,0.31,0.3133,0.3217,0.3234,0.3224,0.331,0.3429,0.3453,0.3474,0.3536,0.3563,0.3239,0.3239,0.3239,0,0.2926,0.2964,0.2919,0.2963,0.3003,0.2939,0.3011,0.2996,0.3003,0.3041,0.2984,0.3088,0.3089,0.3236,0.326,0.3248,0.3296,0.3252,0.3446,0.3468,0.3489,0.3547,0.3576,0.3244,0.3243,0.3243,0.3242,0,0.3005,0.3047,0.3072,0.3113,0.3131,0.3185,0.3171,0.3179,0.3156,0.3164,0.3252,0.3246,0.3327,0.3331,0.3311,0.3476,0.3455,0.344,0.3412,0.3522,0.3576,0.3604,0.3251,0.3249,0.3248,0.3246,0,0,0.3098,0.3131,0.3156,0.3185,0.3235,0.3244,0.3316,0.3379,0.3423,0.3411,0.351,0.3553,0.3535,0.3571,0.3563,0.3637,0.3787,0.3595,0.3599,0.3658,0.4027,0.3955,0.3977,0.3815,0.382,0.3825,0.4,0,0.3208,0.3301,0.3317,0.3422,0.3469,0.3472,0.353,0.3564,0.3574,0.3629,0.3651,0.3713,0.3633,0.3663,0.3739,0.3773,0.3867,0.3739,0.3911,0.3915,0.3841,0.4011,0.3848,0.3987,0.4027,0.4031,0.4035,0,0.3331,0.3364,0.3487,0.3553,0.3579,0.3628,0.372,0.3762,0.3836,0.385,0.3935,0.3925,0.4037,0.3926,0.4092,0.4016,0.4042,0.4049,0.4057,0.3982,0.3897,0.3888,0.4035,0.4084,0.4077,0.4073,0.407,0,0.3397,0.3509,0.3597,0.3629,0.3678,0.374,0.3772,0.3844,0.3875,0.3996,0.4029,0.4164,0.4196,0.4288,0.4268,0.4213,0.4421,0.436,0.4333,0.4325,0.4217,0.4191,0.4435,0.452,0.452,0.452,0.4519,0,0.352,0.3583,0.3615,0.365,0.3722,0.3765,0.3852,0.3902,0.3992,0.4042,0.4128,0.4189,0.4285,0.4377,0.4382,0.4442,0.4538,0.4395,0.4399,0.4238,0.4213,0.4269,0.4254,0.4526,0.4525,0.4523,0.4522,0,0.3551,0.3597,0.3665,0.3731,0.3742,0.3777,0.3837,0.3874,0.3981,0.4061,0.4102,0.4246,0.436,0.4434,0.4576,0.4566,0.4551,0.4638,0.4408,0.4382,0.437,0.4362,0.4257,0.418,0.4666,0.4666,0.4666,0,0.355,0.36,0.3676,0.3671,0.3691,0.3734,0.3744,0.3847,0.3888,0.4066,0.4096,0.4259,0.4326,0.4517,0.4536,0.4611,0.4528,0.4542,0.4415,0.4406,0.4403,0.4117,0.4039,0.4301,0.4298,0.4295,0.4293,0,0.3526,0.3578,0.3609,0.361,0.3618,0.3638,0.3678,0.3704,0.3826,0.3891,0.4001,0.4092,0.4271,0.4314,0.4443,0.4441,0.4374,0.4489,0.4576,0.4238,0.385,0.3762,0.4116,0.427,0.4272,0.4274,0.4275,0.4276,0.3477,0.3492,0.3529,0.3508,0.3518,0.3512,0.3479,0.3526,0.3558,0.3612,0.3811,0.3894,0.4166,0.4292,0.4279,0.4297,0.4169,0.4269,0.429,0.4023,0.386,0.4138,0.4231,0.4233,0.4234,0.4236,0.4237,0,0.3389,0.3399,0.3392,0.337,0.3332,0.3384,0.3384,0.332,0.3273,0.3434,0.3487,0.376,0.3889,0.409,0.4237,0.4189,0.39,0.4153,0.3789,0.3752,0.4137,0.4044,0.3984,0.3983,0.3983,0.3983,0.3983,0.3983,0.332,0.3295,0.3288,0.3165,0.315,0.3049,0.302,0.2945,0.3013,0.3062,0.3211,0.3375,0.3861,0.4218,0.4308,0.4201,0.3993,0.3719,0.3803,0.4206,0.4219,0.4231,0.4149,0.4112,0.4112,0.3203,0.3198,0.3193]},{"header":{"parameterUnit":"m.s-1","parameterCategory":2,"la1":30.2991,"la2":30.254,"lo1":-89.0895,"lo2":-89.0444,"dy":0.0017,"dx":0.0017,"nx":28,"ny":28,"refTime":"2024-07-08T09:00:00:Z","depth":"0","parameterNumber":3,"parameterNumberName":"V-component_of_CURRENTS"},"data":[0,0,0,0,0,0,0,0,0,0,0,0,0,0,0,0,0,0,0,0,0,0,0,0,0,0,0,0,0,0,0,0,0,0,0,0,0,0,0,0,0,0,0,0,0,0,0,0,0,0,0,0,0,0,0,0,0,0,0.0304,0.0303,0,0.0253,0.0253,0.0253,0.022,0.022,0.022,0.0219,0.0103,0.0101,0.0098,0,0,0,0,0,0,0,0,0,0,0,0,0,0.0313,0.0314,0.0304,0.0303,0.0302,0.0254,0.0253,0.0252,0.0221,0.022,0.022,0.0219,0.0104,0.0101,0.0098,0,0,0,0,0,0,0,0,0,0,0,0,0,0.0292,0.0314,0.0304,0.0279,0.0276,0.0254,0.0253,0.0252,0.0221,0.022,0.022,0.0219,0.0105,0.0101,0.0097,0.0082,0,0,0.0084,0.0083,0,0,0,0,0,0,0,0,0.0294,0.0292,0.0284,0.0281,0.0278,0.0241,0.0213,0.0191,0.0221,0.0244,0.0219,0.0219,0.0142,0.0135,0.013,0.0076,0.0071,0.0084,0.0081,0.008,0.0078,0,0,0,0,0,0,0,0.0295,0.0294,0.0286,0.0283,0.0279,0.025,0.0247,0.0209,0.0197,0.0242,0.0239,0.0231,0.0141,0.0135,0.0127,0.007,0.0084,0.008,0.0078,0.0076,0.003,0.0031,0,0,0,0,0,0,0.0302,0.0296,0.0287,0.0284,0.0283,0.025,0.0247,0.0255,0.0198,0.0189,0.0231,0.0229,0.0142,0.0132,0.0123,0.0147,0.008,0.0076,0.0073,0.0029,0.003,0.0032,0,0,0,0,0,0,0.0303,0.0302,0.0289,0.0286,0.0282,0.0251,0.0259,0.0254,0.0247,0.0191,0.0181,0.0229,0.0141,0.0129,0.0109,0.0141,0.0074,0.007,0.0027,0.0029,0.0031,0.0166,0,0,0,0,0,0,0.0303,0.0303,0.0313,0.0287,0.0283,0.0286,0.026,0.0253,0.0242,0.0239,0.0186,0.0175,0.014,0.0116,0.0105,0.0134,0.0067,0.0026,0.0028,0.003,0.016,0.0173,0.0183,0,0,0,0,0,0.0304,0.0318,0.0314,0.0312,0.0297,0.0286,0.0282,0.0258,0.0243,0.0248,0.0221,0.0177,0.0123,0.0113,0.01,0.0129,0.0024,0.0027,0.003,0.0155,0.017,0.0183,0,0,0,0,0,0,0.031,0.0315,0.031,0.032,0.0309,0.028,0.0277,0.0262,0.0245,0.0237,0.0189,0.0177,0.0174,0.0129,0.012,0.0122,0.0067,0.0067,0.0167,0.018,0.0191,0.0211,0.0063,0,0,0,0,0,0.0321,0.0345,0.0329,0.0338,0.0332,0.0306,0.0298,0.0283,0.0261,0.0253,0.023,0.0197,0.0176,0.016,0.0133,0.0128,0.0072,0.0137,0.0149,0.0159,0.0166,0.0121,0.0129,0.0041,0.0041,0.0041,0,0,0.0323,0.033,0.034,0.0343,0.0328,0.0348,0.0301,0.029,0.0313,0.0241,0.0268,0.0234,0.0183,0.0191,0.0185,0.0157,0.0154,0.0163,0.0172,0.0173,0.0125,0.0133,0.0141,0.0043,0.0043,0.0042,0,0,0.0345,0.0346,0.0375,0.0378,0.0368,0.0367,0.0368,0.0354,0.0349,0.0362,0.0325,0.0315,0.0282,0.0267,0.0249,0.0301,0.0218,0.0288,0.0361,0.0318,0.0325,0.033,0.0268,0.0267,0.0293,0.0293,0.0294,0,0.0352,0.0389,0.0376,0.0403,0.0426,0.0385,0.0425,0.0413,0.0403,0.0414,0.0385,0.037,0.0324,0.0338,0.036,0.0329,0.0279,0.0317,0.0334,0.0338,0.0341,0.0276,0.0273,0.03,0.0299,0.0299,0.0298,0,0.0392,0.043,0.0441,0.0489,0.051,0.0529,0.0526,0.0542,0.0538,0.0533,0.0545,0.0492,0.0481,0.047,0.0429,0.0441,0.039,0.0356,0.0303,0.0358,0.0286,0.028,0.031,0.0308,0.0306,0.0304,0,0,0.0414,0.0467,0.0478,0.0523,0.0563,0.0586,0.0633,0.067,0.0707,0.0681,0.0728,0.0688,0.0648,0.0624,0.057,0.0535,0.0512,0.0462,0.0457,0.0408,0.04,0.0409,0.0403,0.0479,0.0479,0.0479,0.0339,0,0.0462,0.0541,0.0568,0.0665,0.0709,0.0724,0.0783,0.0807,0.0817,0.0848,0.0781,0.0795,0.0706,0.0707,0.0656,0.0557,0.0503,0.0552,0.0346,0.034,0.0348,0.04,0.0409,0.029,0.0333,0.0332,0.0331,0,0.0516,0.0565,0.0663,0.0773,0.0796,0.0854,0.0958,0.1,0.1019,0.1023,0.1009,0.0953,0.0904,0.0818,0.0655,0.0688,0.0552,0.0461,0.0453,0.0412,0.0341,0.024,0.0277,0.0124,0.0321,0.0322,0.0323,0,0.0559,0.0654,0.0744,0.0775,0.0872,0.0932,0.0995,0.1053,0.1112,0.1132,0.1173,0.1084,0.1054,0.0886,0.069,0.0668,0.0504,0.0443,0.0316,0.0313,0.0256,0.025,0.0129,0.0318,0.0318,0.0318,0.0319,0,0.0626,0.0696,0.0764,0.081,0.0931,0.0983,0.1113,0.116,0.1233,0.1329,0.1254,0.1297,0.1071,0.095,0.0739,0.0526,0.0529,0.034,0.029,0.0304,0.0304,0.0116,0.0017,0.0313,0.0314,0.0315,0.0316,0,0.0665,0.0707,0.0812,0.0914,0.0955,0.1043,0.1199,0.1286,0.1345,0.1468,0.1484,0.1443,0.1301,0.1061,0.0799,0.061,0.03,0.0308,0.0338,0.0296,0.0049,-0.0042,-0.022,-0.0309,0.0145,0.0144,0.0144,0,0.0689,0.0741,0.0877,0.0951,0.1004,0.1129,0.123,0.1332,0.1446,0.157,0.1643,0.1554,0.153,0.1157,0.08,0.0445,0.0274,0.0233,0.02,0.0057,-0.0084,-0.0132,-0.0198,0.0156,0.0156,0.0156,0.0155,0,0.0727,0.0778,0.0864,0.1018,0.1135,0.1279,0.1434,0.1539,0.168,0.1782,0.1901,0.1892,0.1566,0.1257,0.0801,0.0533,0.0143,0.022,0.0057,-0.0082,-0.0131,-0.0246,0.021,0.0154,0.0154,0.0154,0.0154,0.0154,0.0755,0.0824,0.0946,0.1106,0.1249,0.1436,0.157,0.173,0.1914,0.2102,0.2083,0.2147,0.1738,0.1125,0.0701,0.009,0.0096,-0.006,-0.0164,-0.0201,-0.0258,0.0207,0.0117,0.0117,0.0117,0.0117,0.0117,0,0.0791,0.0883,0.1028,0.1227,0.141,0.1474,0.1717,0.1858,0.2077,0.2272,0.2363,0.2317,0.1713,0.1124,0.0294,-0.0178,-0.0376,-0.04,-0.049,-0.0545,-0.0151,-0.0119,-0.0244,-0.0244,-0.0244,-0.0244,-0.0244,-0.0243,0.0812,0.0946,0.1038,0.1332,0.1482,0.1718,0.1866,0.2065,0.2275,0.2568,0.2736,0.2819,0.2602,0.0946,-0.0141,-0.0467,-0.0804,-0.0856,-0.0998,-0.0749,-0.0726,-0.0703,-0.0694,-0.0937,-0.0938,-0.1334,-0.1338,-0.1341]}],[{"header":{"parameterUnit":"m.s-1","parameterCategory":2,"la1":30.2991,"la2":30.254,"lo1":-89.0895,"lo2":-89.0444,"dy":0.0017,"dx":0.0017,"nx":28,"ny":28,"refTime":"2024-07-08T09:00:00:Z","depth":"2","parameterNumber":2,"parameterNumberName":"U-component_of_CURRENTS"},"data":[0,0,0,0,0,0,0,0,0,0,0,0,0,0,0,0,0,0,0,0,0,0,0,0,0,0,0,0,0,0,0,0,0,0,0,0,0,0,0,0,0,0,0,0,0,0,0,0,0,0,0,0,0,0,0,0,0,0,0.2726,0.2726,0,0.2724,0.2724,0.2723,0.2744,0.2745,0.2746,0.2747,0.2783,0.2783,0.2783,0,0,0,0,0,0,0,0,0,0,0,0,0,0.2725,0.2725,0.2726,0.2726,0.2726,0.2724,0.2724,0.2723,0.2744,0.2745,0.2746,0.2747,0.2783,0.2783,0.2783,0,0,0,0,0,0,0,0,0,0,0,0,0,0.2722,0.2725,0.2726,0.2738,0.274,0.2724,0.2724,0.2723,0.2744,0.2745,0.2747,0.2748,0.2783,0.2783,0.2783,0.2761,0,0,0.2784,0.2784,0,0,0,0,0,0,0,0,0.2722,0.2722,0.2736,0.2738,0.2739,0.2738,0.2737,0.2739,0.2744,0.274,0.2747,0.2748,0.2772,0.2773,0.2766,0.2762,0.2764,0.2784,0.2784,0.2784,0.2784,0,0,0,0,0,0,0,0.2723,0.2722,0.2723,0.2737,0.2738,0.2737,0.2737,0.2737,0.2748,0.274,0.2742,0.2746,0.2773,0.2766,0.2767,0.2764,0.2784,0.2784,0.2785,0.2785,0.2885,0.2887,0,0,0,0,0,0,0.2728,0.2722,0.2723,0.2723,0.2736,0.2736,0.2737,0.2735,0.2747,0.275,0.2745,0.2747,0.2764,0.2767,0.2769,0.2864,0.2784,0.2785,0.2785,0.2882,0.2885,0.2888,0,0,0,0,0,0,0.2728,0.2728,0.2723,0.2725,0.2725,0.2735,0.2733,0.2734,0.2735,0.2751,0.2755,0.2745,0.2765,0.2768,0.2799,0.2861,0.2785,0.2785,0.2879,0.2883,0.2887,0.2977,0,0,0,0,0,0,0.2727,0.2727,0.2726,0.2725,0.2725,0.2737,0.2732,0.2733,0.2736,0.2739,0.2752,0.2756,0.2767,0.2799,0.2799,0.286,0.2785,0.2876,0.2881,0.2886,0.2971,0.2984,0.2994,0,0,0,0,0,0.2727,0.274,0.2726,0.2726,0.2723,0.2738,0.2738,0.2747,0.2735,0.2748,0.2763,0.2756,0.283,0.28,0.28,0.2863,0.2874,0.288,0.2885,0.2966,0.2981,0.2994,0,0,0,0,0,0,0.2741,0.2743,0.2728,0.2739,0.2742,0.2743,0.2756,0.2744,0.2759,0.2768,0.2767,0.2774,0.283,0.2826,0.2792,0.2908,0.2859,0.2864,0.292,0.2934,0.2946,0.2969,0.2786,0,0,0,0,0,0.2739,0.275,0.2744,0.2753,0.2756,0.2746,0.2749,0.2756,0.2768,0.2774,0.2779,0.2805,0.285,0.2873,0.2897,0.2941,0.2975,0.2989,0.3,0.301,0.3032,0.3153,0.3178,0.2906,0.2906,0.2906,0,0,0.2751,0.2749,0.2758,0.2757,0.2757,0.2795,0.2752,0.2773,0.281,0.2776,0.2824,0.2833,0.2867,0.2937,0.2963,0.2944,0.3102,0.3017,0.3025,0.3042,0.3161,0.3188,0.3212,0.291,0.291,0.2909,0,0,0.2802,0.2773,0.281,0.282,0.283,0.2827,0.2833,0.2833,0.2841,0.2869,0.2883,0.293,0.2954,0.3021,0.3052,0.3137,0.3152,0.3142,0.323,0.3347,0.337,0.3392,0.3453,0.3479,0.3158,0.3158,0.3158,0,0.2829,0.2867,0.2823,0.2868,0.2906,0.2848,0.292,0.2907,0.2919,0.2959,0.2904,0.3008,0.301,0.3154,0.318,0.3167,0.3214,0.3172,0.3364,0.3386,0.3406,0.3463,0.3491,0.3163,0.3163,0.3162,0.3162,0,0.2901,0.2951,0.2976,0.3018,0.3037,0.309,0.3078,0.3091,0.3071,0.3082,0.3171,0.3165,0.3248,0.3251,0.3231,0.3395,0.3373,0.3357,0.3329,0.3439,0.3492,0.3519,0.317,0.3169,0.3167,0.3166,0,0,0.2978,0.3028,0.3046,0.309,0.3138,0.3149,0.3223,0.3289,0.3338,0.3327,0.3429,0.347,0.3455,0.3491,0.3482,0.3555,0.3703,0.3514,0.3517,0.3575,0.394,0.375,0.376,0.373,0.3736,0.3741,0.3912,0,0.3083,0.3179,0.3195,0.3311,0.3373,0.3375,0.3435,0.3473,0.3489,0.3549,0.3568,0.3633,0.3553,0.3585,0.3658,0.369,0.3783,0.3656,0.3824,0.3828,0.3648,0.3789,0.3512,0.3628,0.3938,0.3943,0.3946,0,0.3165,0.3241,0.3366,0.3459,0.3485,0.3537,0.3634,0.3677,0.3757,0.3774,0.386,0.385,0.3959,0.3848,0.4008,0.3934,0.3959,0.3963,0.397,0.3784,0.369,0.3572,0.3665,0.3991,0.3988,0.3984,0.3981,0,0.3211,0.3349,0.3448,0.3488,0.3586,0.3652,0.3687,0.3766,0.3796,0.3925,0.3959,0.4092,0.4121,0.421,0.4182,0.4131,0.4327,0.427,0.4137,0.4122,0.3914,0.387,0.4428,0.4428,0.4427,0.4427,0.4426,0,0.3285,0.3374,0.3467,0.3533,0.3631,0.3686,0.3781,0.3834,0.3926,0.3974,0.4062,0.4118,0.421,0.4294,0.4296,0.4287,0.4443,0.4186,0.4177,0.393,0.3888,0.4216,0.4189,0.4433,0.4432,0.4431,0.443,0,0.3266,0.3343,0.3481,0.3627,0.365,0.3703,0.377,0.3813,0.3921,0.3998,0.4039,0.4174,0.4275,0.434,0.4473,0.439,0.443,0.4398,0.406,0.4005,0.4121,0.4097,0.429,0.4285,0.4281,0.4278,0.4275,0,0.3262,0.3329,0.3503,0.3536,0.3596,0.3667,0.3687,0.3791,0.3835,0.3999,0.4026,0.4173,0.4179,0.4293,0.4283,0.4303,0.4384,0.4011,0.3849,0.4146,0.412,0.4102,0.4084,0.362,0.3612,0.3605,0.36,0,0.3288,0.3344,0.3413,0.3483,0.3528,0.3572,0.3628,0.3649,0.3767,0.3823,0.3908,0.3934,0.404,0.3923,0.3939,0.3902,0.3977,0.387,0.4364,0.3655,0.3517,0.3488,0.3494,0.3542,0.3548,0.3552,0.3555,0.3558,0.3269,0.33,0.3368,0.3376,0.3422,0.3444,0.3414,0.3453,0.3471,0.3469,0.3662,0.3575,0.3648,0.3488,0.3417,0.339,0.3641,0.3477,0.3499,0.3526,0.3376,0.3234,0.3177,0.3181,0.3184,0.3187,0.3189,0,0.3231,0.3227,0.3245,0.3258,0.3223,0.331,0.3322,0.3214,0.313,0.3199,0.319,0.2917,0.2845,0.2928,0.2815,0.2799,0.2772,0.2665,0.2647,0.2709,0.2763,0.2572,0.2161,0.2157,0.2153,0.215,0,0,0.3189,0.317,0.3144,0.3041,0.3041,0.2914,0.289,0.273,0.2704,0.2548,0.2494,0.2674,0.2823,0.2446,0.2437,0.2291,0.2458,0.218,0.3023,0.3066,0.3114,0.3269,0.3049,0,0,0,0,0]},{"header":{"parameterUnit":"m.s-1","parameterCategory":2,"la1":30.2991,"la2":30.254,"lo1":-89.0895,"lo2":-89.0444,"dy":0.0017,"dx":0.0017,"nx":28,"ny":28,"refTime":"2024-07-08T09:00:00:Z","depth":"2","parameterNumber":3,"parameterNumberName":"V-component_of_CURRENTS"},"data":[0,0,0,0,0,0,0,0,0,0,0,0,0,0,0,0,0,0,0,0,0,0,0,0,0,0,0,0,0,0,0,0,0,0,0,0,0,0,0,0,0,0,0,0,0,0,0,0,0,0,0,0,0,0,0,0,0,0,0.0252,0.0251,0,0.0205,0.0205,0.0204,0.0176,0.0176,0.0175,0.0175,0.0061,0.0059,0.0056,0,0,0,0,0,0,0,0,0,0,0,0,0,0.026,0.0261,0.0252,0.0251,0.025,0.0205,0.0205,0.0204,0.0176,0.0176,0.0175,0.0175,0.0062,0.0059,0.0056,0,0,0,0,0,0,0,0,0,0,0,0,0,0.0241,0.0261,0.0252,0.023,0.0227,0.0205,0.0205,0.0204,0.0176,0.0176,0.0175,0.0175,0.0063,0.0059,0.0055,0.0038,0,0,0.0043,0.0041,0,0,0,0,0,0,0,0,0.0242,0.0241,0.0234,0.0231,0.0228,0.0195,0.0166,0.0145,0.0176,0.0197,0.0175,0.0175,0.0099,0.0092,0.0087,0.0033,0.0028,0.0042,0.004,0.0038,0.0037,0,0,0,0,0,0,0,0.0244,0.0242,0.0235,0.0233,0.023,0.0203,0.02,0.0162,0.0151,0.0195,0.0193,0.0185,0.0097,0.0091,0.0084,0.0026,0.0042,0.0039,0.0036,0.0034,-0.0014,-0.0013,0,0,0,0,0,0,0.025,0.0244,0.0236,0.0233,0.0233,0.0203,0.02,0.0207,0.0153,0.0144,0.0186,0.0184,0.0099,0.0089,0.008,0.0103,0.0038,0.0034,0.0032,-0.0015,-0.0014,-0.0013,0,0,0,0,0,0,0.0251,0.025,0.0238,0.0235,0.0232,0.0204,0.0211,0.0206,0.0201,0.0146,0.0136,0.0185,0.0098,0.0086,0.0066,0.0096,0.0032,0.0028,-0.0017,-0.0015,-0.0013,0.0119,0,0,0,0,0,0,0.0251,0.0251,0.0261,0.0236,0.0232,0.0235,0.0211,0.0206,0.0196,0.0193,0.0142,0.0131,0.0097,0.0072,0.0062,0.009,0.0025,-0.0018,-0.0016,-0.0014,0.0113,0.0125,0.0135,0,0,0,0,0,0.0252,0.0265,0.0262,0.026,0.0246,0.0236,0.0232,0.021,0.0196,0.0202,0.0175,0.0132,0.0079,0.007,0.0057,0.0085,-0.0019,-0.0017,-0.0014,0.0108,0.0123,0.0135,0,0,0,0,0,0,0.0258,0.0262,0.0258,0.0268,0.0258,0.0231,0.0228,0.0214,0.0198,0.0191,0.0144,0.0133,0.0129,0.0084,0.0076,0.0077,0.0023,0.0024,0.0121,0.0134,0.0145,0.0165,0.0022,0,0,0,0,0,0.0268,0.0292,0.0276,0.0285,0.0279,0.0256,0.0248,0.0235,0.0214,0.0206,0.0184,0.0151,0.013,0.0114,0.0087,0.0081,0.0026,0.009,0.0101,0.0111,0.0119,0.0073,0.0081,-0.0004,-0.0004,-0.0004,0,0,0.027,0.0277,0.0287,0.029,0.0276,0.0296,0.0251,0.0242,0.0264,0.0194,0.0221,0.0187,0.0136,0.0143,0.0136,0.011,0.0105,0.0114,0.0123,0.0125,0.0076,0.0084,0.0092,-0.0002,-0.0002,-0.0003,0,0,0.0292,0.0293,0.0321,0.0324,0.0315,0.0314,0.0316,0.0303,0.0299,0.0312,0.0276,0.0265,0.0232,0.0217,0.0198,0.0247,0.0166,0.0234,0.0307,0.0263,0.027,0.0275,0.0215,0.0213,0.024,0.024,0.0241,0,0.0298,0.0335,0.0322,0.0349,0.037,0.0332,0.0371,0.036,0.0351,0.0363,0.0335,0.0318,0.0272,0.0284,0.0306,0.0275,0.0226,0.0264,0.0279,0.0283,0.0286,0.0222,0.0219,0.0247,0.0246,0.0246,0.0245,0,0.0335,0.0374,0.0385,0.0432,0.0452,0.047,0.0468,0.0485,0.0483,0.0479,0.049,0.0436,0.0426,0.0414,0.0373,0.0384,0.0334,0.03,0.0249,0.0302,0.0232,0.0226,0.0257,0.0254,0.0252,0.0251,0,0,0.0349,0.0407,0.0415,0.0466,0.0503,0.0526,0.0573,0.0611,0.0651,0.0623,0.0671,0.0628,0.059,0.0566,0.0512,0.0476,0.0452,0.0405,0.0399,0.0352,0.0341,0.0299,0.0288,0.0419,0.0419,0.0419,0.0282,0,0.0393,0.0472,0.0497,0.0596,0.0647,0.0661,0.072,0.0746,0.0758,0.0791,0.0722,0.0736,0.0647,0.0649,0.0596,0.0496,0.0444,0.0491,0.0289,0.0283,0.0246,0.0283,0.0302,0.0181,0.0276,0.0275,0.0274,0,0.0429,0.0494,0.0592,0.0712,0.0734,0.0792,0.09,0.0941,0.0962,0.0968,0.0953,0.0896,0.0846,0.076,0.0595,0.0628,0.0494,0.0402,0.0394,0.0306,0.0232,0.0142,0.0166,0.0264,0.0264,0.0265,0.0266,0,0.0465,0.0568,0.0661,0.0696,0.0811,0.0873,0.0938,0.0998,0.1056,0.1079,0.112,0.1029,0.0998,0.0829,0.063,0.061,0.0441,0.0383,0.0213,0.0207,0.0158,0.0149,0.0258,0.0258,0.0259,0.0259,0.0259,0,0.051,0.0588,0.0683,0.0742,0.0874,0.093,0.1063,0.1112,0.1185,0.1279,0.1204,0.1242,0.1015,0.089,0.068,0.0437,0.0467,0.0231,0.0177,0.0204,0.0201,0.022,0.0217,0.0254,0.0255,0.0256,0.0257,0,0.0522,0.058,0.0714,0.0851,0.0898,0.0994,0.1153,0.1243,0.1302,0.1422,0.1437,0.139,0.1239,0.0996,0.0731,0.0514,0.0285,0.0186,0.0228,0.0182,0.0057,0.0063,-0.0031,-0.0033,-0.0035,-0.0037,-0.0038,0,0.0544,0.0596,0.0783,0.0877,0.0945,0.1083,0.1191,0.1293,0.1407,0.1522,0.1592,0.1493,0.142,0.1014,0.0671,0.0298,0.0264,0.005,0.001,0.0075,0.0031,0.004,0.0048,-0.0012,-0.0014,-0.0014,-0.0015,0,0.0592,0.0645,0.0753,0.0944,0.1081,0.1236,0.1398,0.1502,0.164,0.1733,0.1832,0.1771,0.1417,0.1057,0.0563,0.0307,0.0111,0.0017,0.0084,0.0068,0.0083,0.0043,0.0052,-0.0023,-0.0022,-0.0022,-0.0021,-0.0021,0.063,0.0707,0.0854,0.1028,0.1191,0.1393,0.1529,0.1679,0.1852,0.1987,0.1966,0.1875,0.1482,0.084,0.0434,0.0034,0.0056,-0.0126,-0.012,-0.0114,-0.0077,-0.0065,-0.0194,-0.0194,-0.0194,-0.0194,-0.0194,0,0.0692,0.0778,0.0937,0.1164,0.1348,0.1429,0.1678,0.1783,0.1972,0.2057,0.2091,0.1696,0.1279,0.085,0.026,-0.0129,-0.0157,-0.027,-0.0203,-0.0192,-0.0183,-0.0148,-0.0285,-0.0287,-0.0288,-0.0289,0,0,0.0732,0.0877,0.0959,0.1266,0.1423,0.165,0.18,0.1913,0.2018,0.2064,0.2023,0.1904,0.1398,0.0942,0.044,0.0098,0.0031,0.0004,0.0118,0.0269,0.0283,-0.0061,0.001,0,0,0,0,0]}],[{"header":{"parameterUnit":"m.s-1","parameterCategory":2,"la1":30.2991,"la2":30.254,"lo1":-89.0895,"lo2":-89.0444,"dy":0.0017,"dx":0.0017,"nx":28,"ny":28,"refTime":"2024-07-08T09:00:00:Z","depth":"4","parameterNumber":2,"parameterNumberName":"U-component_of_CURRENTS"},"data":[0,0,0,0,0,0,0,0,0,0,0,0,0,0,0,0,0,0,0,0,0,0,0,0,0,0,0,0,0,0,0,0,0,0,0,0,0,0,0,0,0,0,0,0,0,0,0,0,0,0,0,0,0,0,0,0,0,0,0.1119,0.112,0,0.1208,0.1209,0.121,0.1301,0.1302,0.1304,0.1305,0.1501,0.1505,0.1509,0,0,0,0,0,0,0,0,0,0,0,0,0,0.1081,0.1081,0.1119,0.112,0.1121,0.1208,0.1209,0.1211,0.1301,0.1302,0.1304,0.1305,0.15,0.1504,0.1509,0,0,0,0,0,0,0,0,0,0,0,0,0,0.1126,0.1081,0.1119,0.1177,0.1183,0.1208,0.121,0.1211,0.1301,0.1303,0.1304,0.1306,0.1498,0.1504,0.151,0.1511,0,0,0.1529,0.1531,0,0,0,0,0,0,0,0,0.1123,0.1128,0.1167,0.1173,0.118,0.1246,0.1268,0.1317,0.13,0.1256,0.1305,0.1307,0.1424,0.1436,0.1447,0.152,0.1528,0.1529,0.1533,0.1535,0.1537,0,0,0,0,0,0,0,0.112,0.1125,0.1154,0.1168,0.1176,0.1217,0.1225,0.1277,0.133,0.126,0.1267,0.1276,0.1429,0.1441,0.1453,0.1531,0.1529,0.1534,0.1538,0.1541,0.1717,0.1718,0,0,0,0,0,0,0.1104,0.1121,0.1152,0.1157,0.1156,0.1216,0.1225,0.1223,0.1328,0.1345,0.1274,0.128,0.143,0.1446,0.146,0.1618,0.1535,0.1541,0.1545,0.1716,0.1717,0.1719,0,0,0,0,0,0,0.1103,0.1105,0.1148,0.1142,0.1151,0.1214,0.1211,0.1223,0.1271,0.1338,0.1357,0.1314,0.1432,0.1452,0.1522,0.162,0.1544,0.1549,0.1715,0.1717,0.1718,0.1836,0,0,0,0,0,0,0.1101,0.1104,0.113,0.114,0.115,0.1189,0.121,0.1224,0.1272,0.1281,0.1377,0.1395,0.1435,0.1513,0.1528,0.1627,0.1554,0.1714,0.1716,0.1717,0.1831,0.1841,0.185,0,0,0,0,0,0.1099,0.1122,0.113,0.1136,0.1172,0.119,0.12,0.1251,0.1272,0.13,0.1351,0.1394,0.1537,0.1517,0.1536,0.164,0.1713,0.1715,0.1717,0.1826,0.1839,0.185,0,0,0,0,0,0,0.1127,0.1133,0.1143,0.117,0.1189,0.1206,0.1246,0.1263,0.1322,0.1347,0.1398,0.1419,0.152,0.1537,0.1514,0.1687,0.1636,0.1642,0.1713,0.1726,0.1735,0.1787,0.1559,0,0,0,0,0,0.1138,0.1156,0.1161,0.1188,0.1196,0.1221,0.1246,0.1273,0.131,0.134,0.1405,0.147,0.1536,0.1594,0.1642,0.1734,0.1739,0.1809,0.1819,0.1828,0.1877,0.195,0.1973,0.1726,0.1726,0.1726,0,0,0.1148,0.1164,0.1171,0.1196,0.1215,0.1227,0.1243,0.1285,0.1343,0.1352,0.1467,0.1504,0.1557,0.1664,0.1714,0.1703,0.1883,0.1831,0.1839,0.1884,0.1955,0.198,0.2002,0.1728,0.1727,0.1727,0,0,0.1163,0.1194,0.1204,0.1199,0.1233,0.1269,0.1281,0.1319,0.1399,0.1482,0.151,0.1588,0.1696,0.1759,0.1802,0.1885,0.1917,0.1916,0.2044,0.2114,0.2137,0.2157,0.2128,0.2145,0.1942,0.1942,0.1942,0,0.1181,0.119,0.1214,0.1199,0.1235,0.1282,0.1308,0.1373,0.1443,0.1554,0.154,0.1716,0.1748,0.1895,0.1938,0.192,0.1939,0.2003,0.2133,0.2153,0.2172,0.2139,0.2156,0.1948,0.1947,0.1947,0.1946,0,0.1156,0.118,0.1186,0.1201,0.1251,0.1278,0.1358,0.1443,0.1553,0.1657,0.1841,0.1867,0.1992,0.2007,0.2017,0.2183,0.2139,0.2123,0.2115,0.2205,0.2161,0.2177,0.1957,0.1954,0.1953,0.1951,0,0,0.1118,0.1173,0.1176,0.1196,0.1263,0.1294,0.1429,0.1605,0.1694,0.1849,0.2032,0.2147,0.2214,0.2261,0.2271,0.2342,0.245,0.2325,0.2326,0.2316,0.2568,0.2339,0.2333,0.2489,0.2494,0.2498,0.2461,0,0.1098,0.1081,0.1189,0.1236,0.1199,0.1355,0.1478,0.1647,0.1791,0.1969,0.2153,0.2312,0.23,0.2367,0.2449,0.2468,0.2512,0.2459,0.2467,0.2465,0.2271,0.2352,0.2514,0.2472,0.2476,0.2478,0.248,0,0.1006,0.0999,0.1027,0.1203,0.1238,0.1356,0.1565,0.1702,0.1978,0.2118,0.2335,0.2448,0.266,0.2591,0.2715,0.2701,0.2667,0.2641,0.2639,0.2414,0.227,0.2377,0.2509,0.2506,0.2504,0.2502,0.2501,0,0.0802,0.0932,0.0984,0.099,0.1152,0.1334,0.1554,0.1771,0.1937,0.226,0.2404,0.2623,0.2753,0.2819,0.2817,0.2803,0.2885,0.2832,0.2568,0.2546,0.2712,0.2692,0.2893,0.2893,0.2894,0.2894,0.2894,0,0.0641,0.0685,0.0914,0.086,0.1052,0.1256,0.1517,0.1716,0.2019,0.2215,0.252,0.2612,0.2832,0.2904,0.2883,0.278,0.294,0.2614,0.2554,0.2745,0.273,0.2718,0.2698,0.2892,0.2892,0.2893,0.2893,0,0.0374,0.0475,0.0523,0.0775,0.0912,0.1061,0.157,0.1692,0.2026,0.2267,0.2425,0.2687,0.2768,0.2872,0.2903,0.2805,0.2752,0.2652,0.282,0.2764,0.2335,0.2322,0.2366,0.2358,0.2352,0.2347,0.2342,0,0.027,0.0215,0.0445,0.0538,0.0717,0.1022,0.1216,0.164,0.1793,0.2224,0.2313,0.2528,0.2657,0.2578,0.2644,0.2604,0.2546,0.251,0.2469,0.2361,0.2298,0.2295,0.229,0.2332,0.233,0.2328,0.2327,0,0.0062,0.0146,0.0194,0.0388,0.0614,0.0824,0.1197,0.1303,0.1739,0.2003,0.2195,0.2305,0.2357,0.2387,0.2393,0.2342,0.2563,0.2441,0.2453,0.2414,0.2319,0.2263,0.2266,0.2304,0.2307,0.2309,0.2311,0,0.0017,0.0012,0.0134,0.0332,0.0547,0.0702,0.0882,0.1177,0.1403,0.189,0.186,0.2126,0.2284,0.2236,0.222,0.2203,0.2136,0.2073,0.2103,0.2129,0.2068,0.1914,0.175,0,0,0,0,0,-0.0017,0.0001,0.0139,0.0323,0.0526,0.0678,0.0915,0.1074,0.1422,0.1493,0.173,0.1791,0.1871,0.1944,0.1865,0.2005,0.2087,0.1895,0.2016,0.2179,0.2205,0.2155,0,0,0,0,0,0,-0.004,0.0045,0.0092,0.0332,0.0475,0.0688,0.0813,0.098,0.108,0.1401,0.144,0.1661,0.1725,0.1911,0.1835,0.1848,0.1877,0.2014,0.2008,0.2165,0.2188,0.2209,0.2167,0,0,0,0,0]},{"header":{"parameterUnit":"m.s-1","parameterCategory":2,"la1":30.2991,"la2":30.254,"lo1":-89.0895,"lo2":-89.0444,"dy":0.0017,"dx":0.0017,"nx":28,"ny":28,"refTime":"2024-07-08T09:00:00:Z","depth":"4","parameterNumber":3,"parameterNumberName":"V-component_of_CURRENTS"},"data":[0,0,0,0,0,0,0,0,0,0,0,0,0,0,0,0,0,0,0,0,0,0,0,0,0,0,0,0,0,0,0,0,0,0,0,0,0,0,0,0,0,0,0,0,0,0,0,0,0,0,0,0,0,0,0,0,0,0,-0.0071,-0.0072,0,-0.0083,-0.0083,-0.0083,-0.0088,-0.0088,-0.0089,-0.0089,-0.0152,-0.0153,-0.0155,0,0,0,0,0,0,0,0,0,0,0,0,0,-0.0056,-0.0056,-0.0071,-0.0072,-0.0072,-0.0084,-0.0083,-0.0083,-0.0088,-0.0088,-0.0089,-0.0089,-0.0152,-0.0153,-0.0155,0,0,0,0,0,0,0,0,0,0,0,0,0,-0.0061,-0.0056,-0.0071,-0.0079,-0.0081,-0.0084,-0.0083,-0.0083,-0.0088,-0.0088,-0.0089,-0.0089,-0.0151,-0.0153,-0.0155,-0.0156,0,0,-0.0161,-0.0162,0,0,0,0,0,0,0,0,-0.0061,-0.0061,-0.0078,-0.0079,-0.008,-0.0089,-0.0101,-0.0111,-0.0088,-0.008,-0.0089,-0.009,-0.0138,-0.0141,-0.0135,-0.0159,-0.0162,-0.0161,-0.0162,-0.0163,-0.0164,0,0,0,0,0,0,0,-0.006,-0.006,-0.0072,-0.0078,-0.008,-0.0084,-0.0085,-0.0103,-0.0103,-0.0081,-0.0082,-0.0091,-0.0139,-0.0133,-0.0137,-0.0163,-0.0161,-0.0163,-0.0164,-0.0165,-0.0227,-0.0227,0,0,0,0,0,0,-0.0067,-0.006,-0.0071,-0.0072,-0.0077,-0.0084,-0.0085,-0.0082,-0.0102,-0.0107,-0.009,-0.0091,-0.0129,-0.0134,-0.0139,-0.0148,-0.0163,-0.0165,-0.0166,-0.0226,-0.0227,-0.0227,0,0,0,0,0,0,-0.0066,-0.0067,-0.0071,-0.0071,-0.0072,-0.0085,-0.0081,-0.0082,-0.0081,-0.0109,-0.0114,-0.0089,-0.013,-0.0136,-0.0162,-0.0151,-0.0166,-0.0168,-0.0226,-0.0226,-0.0227,-0.0162,0,0,0,0,0,0,-0.0065,-0.0066,-0.0061,-0.0071,-0.0073,-0.008,-0.0081,-0.0082,-0.0087,-0.0088,-0.011,-0.0116,-0.0131,-0.0159,-0.0164,-0.0154,-0.0169,-0.0225,-0.0226,-0.0227,-0.0164,-0.016,-0.0158,0,0,0,0,0,-0.0065,-0.0062,-0.006,-0.0062,-0.0066,-0.0081,-0.0081,-0.0089,-0.0087,-0.0089,-0.0104,-0.0116,-0.0168,-0.016,-0.0166,-0.0156,-0.0225,-0.0226,-0.0227,-0.0165,-0.0161,-0.0158,0,0,0,0,0,0,-0.0058,-0.0063,-0.0061,-0.0061,-0.0072,-0.0084,-0.0088,-0.0089,-0.0098,-0.0101,-0.0119,-0.0126,-0.0145,-0.0167,-0.0158,-0.0181,-0.0199,-0.0201,-0.015,-0.0147,-0.0144,-0.0111,-0.0171,0,0,0,0,0,-0.0052,-0.0045,-0.006,-0.0058,-0.0067,-0.0074,-0.0079,-0.0085,-0.0098,-0.0102,-0.0113,-0.0133,-0.0152,-0.0162,-0.0185,-0.0194,-0.0225,-0.0196,-0.0193,-0.019,-0.0169,-0.0215,-0.0214,-0.023,-0.023,-0.023,0,0,-0.0051,-0.0051,-0.0048,-0.0055,-0.0063,-0.0073,-0.0077,-0.009,-0.008,-0.0109,-0.0101,-0.0125,-0.0155,-0.0164,-0.0175,-0.018,-0.0206,-0.0191,-0.0188,-0.0168,-0.0216,-0.0214,-0.0212,-0.0231,-0.0231,-0.0231,0,0,-0.0051,-0.0045,-0.0044,-0.0065,-0.0081,-0.0073,-0.0077,-0.0087,-0.0075,-0.0075,-0.0095,-0.0113,-0.0133,-0.0149,-0.0161,-0.0159,-0.0192,-0.0169,-0.0118,-0.0163,-0.0162,-0.0161,-0.0211,-0.0215,-0.0163,-0.0163,-0.0162,0,-0.0059,-0.0044,-0.0049,-0.0071,-0.0073,-0.0073,-0.0076,-0.0069,-0.0078,-0.0056,-0.007,-0.0089,-0.0122,-0.0125,-0.012,-0.0149,-0.0179,-0.0124,-0.0157,-0.0156,-0.0156,-0.0208,-0.0213,-0.016,-0.016,-0.016,-0.0161,0,-0.0052,-0.0063,-0.0072,-0.0077,-0.0078,-0.0085,-0.0081,-0.0061,-0.0035,-0.0024,-0.0013,-0.0051,-0.0056,-0.0076,-0.0091,-0.01,-0.0125,-0.015,-0.0158,-0.015,-0.0207,-0.0213,-0.0155,-0.0156,-0.0157,-0.0158,0,0,-0.0013,-0.0057,-0.0063,-0.0058,-0.0079,-0.0066,-0.0047,-0.0006,0.001,0.0024,0.0071,0.0033,0.0029,0.0014,-0.0017,-0.005,-0.0086,-0.0083,-0.0087,-0.0119,-0.0185,-0.017,-0.0177,-0.0111,-0.0111,-0.0112,-0.0229,0,-0.0002,-0.002,-0.0043,-0.0037,-0.0028,-0.0032,-0.0003,0.0027,0.0035,0.0075,0.0086,0.0103,0.0058,0.0066,0.0024,-0.005,-0.0097,-0.0052,-0.02,-0.0205,-0.018,-0.0181,-0.0113,-0.0234,-0.0236,-0.0237,-0.0238,0,0.0024,0.0027,0.0025,0.0029,0.0032,0.0034,0.0092,0.0114,0.0149,0.0166,0.0179,0.0171,0.0172,0.0126,0.0001,0.0036,-0.0063,-0.0134,-0.0141,-0.0146,-0.02,-0.0244,-0.025,-0.0249,-0.0248,-0.0247,-0.0246,0,0.0119,0.0078,0.0104,0.009,0.009,0.0113,0.0146,0.0154,0.0218,0.0242,0.029,0.0239,0.0267,0.0142,0.001,0.0006,-0.0138,-0.0176,-0.0266,-0.0268,-0.0274,-0.0274,-0.028,-0.0279,-0.0279,-0.0279,-0.0279,0,0.0172,0.0198,0.0146,0.0159,0.0236,0.02,0.0272,0.0281,0.0329,0.0402,0.0365,0.0391,0.0276,0.0189,0.0035,-0.0121,-0.0131,-0.0248,-0.0289,-0.0249,-0.0244,-0.028,-0.0278,-0.0283,-0.0282,-0.0281,-0.0281,0,0.0293,0.0244,0.0279,0.0264,0.0278,0.0349,0.042,0.0462,0.048,0.0574,0.0622,0.0556,0.0414,0.0258,0.004,-0.0069,-0.0241,-0.0306,-0.0242,-0.028,-0.0352,-0.0346,-0.0413,-0.0413,-0.0413,-0.0414,-0.0414,0,0.0334,0.0359,0.037,0.0416,0.0417,0.0505,0.0566,0.0586,0.0613,0.0648,0.0699,0.0619,0.0541,0.0266,0.0057,-0.0225,-0.0271,-0.035,-0.0351,-0.0328,-0.0363,-0.0356,-0.035,-0.0414,-0.0414,-0.0414,-0.0414,0,0.0426,0.043,0.0467,0.0567,0.0623,0.0697,0.075,0.0793,0.0802,0.084,0.0789,0.0669,0.0508,0.0265,0.0065,-0.0152,-0.0285,-0.0353,-0.0355,-0.0357,-0.0331,-0.0363,-0.0357,-0.0415,-0.0415,-0.0415,-0.0415,0,0.0486,0.0539,0.0575,0.0657,0.0788,0.0828,0.0845,0.0848,0.0891,0.0878,0.0844,0.0681,0.058,0.0299,0.0094,-0.0085,-0.0146,-0.0199,-0.021,-0.0211,-0.0114,-0.0049,-0.0073,0,0,0,0,0,0.0497,0.0542,0.0645,0.0707,0.0863,0.0897,0.0942,0.0926,0.0914,0.0902,0.0877,0.0718,0.0452,0.0318,0.0138,0.0054,-0.0198,-0.0163,-0.0269,-0.042,-0.0419,-0.0337,0,0,0,0,0,0,0.0511,0.0612,0.0628,0.0744,0.0812,0.0927,0.0954,0.0922,0.0884,0.0868,0.0718,0.0682,0.04,0.0558,0.0138,0.0081,-0.0008,-0.0286,-0.0289,-0.042,-0.0419,-0.0419,-0.0334,0,0,0,0,0]}]]